• MPC Preparation (Info)

  • MPEC 2023-F210 : 2023 FH7

    The following Minor Planet Electronic Circular may be linked-to from your own Web pages, but must not otherwise be redistributed electronically.

    A form allowing access to any MPEC is at the bottom of this page.


    Read MPEC 2023-F209 Read MPEC 2023-F211


    M.P.E.C. 2023-F210                               Issued 2023 March 29, 10:59 UT
    
         The Minor Planet Electronic Circulars contain information on unusual
             minor planets, routine data on comets and natural satellites,
             and occasional editorial announcements.  They are published
        on behalf of Division F of the International Astronomical Union by the
              Minor Planet Center, Smithsonian Astrophysical Observatory,
                              Cambridge, MA 02138, U.S.A.
    			  
                 Prepared using the Tamkin Foundation Computer Network
    
                                  MPC@CFA.HARVARD.EDU
                URL https://www.minorplanetcenter.net/    ISSN 1523-6714
    
                                    2023 FH7                                 
    
    
    Observations:
         K23F07H*1C2023 03 28.15411408 57 10.555+06 52 45.05         21.11GVEF210G96
         K23F07H 1C2023 03 28.15972508 57 08.982+06 52 04.15         20.87GVEF210G96
         K23F07H 1C2023 03 28.16533608 57 07.474+06 51 24.52         20.76GVEF210G96
         K23F07H 1C2023 03 28.17094708 57 05.893+06 50 42.76         20.88GVEF210G96
         K23F07H KC2023 03 28.25273508 56 43.494+06 40 21.97         20.67GVEF210I52
         K23F07H KC2023 03 28.25418608 56 43.148+06 40 10.88         20.91GVEF210I52
         K23F07H KC2023 03 28.25563408 56 42.817+06 39 58.90         20.42GVEF210I52
         K23F07H KC2023 03 28.25708608 56 42.436+06 39 47.66         21.06GVEF210I52
         K23F07H KC2023 03 28.91235508 56 14.58 +04 42 30.7          20.8 GVEF210L01
         K23F07H KC2023 03 28.91433208 56 14.00 +04 42 01.6          20.9 GVEF210L01
         K23F07H pC2023 03 28.91836408 56 12.77 +04 41 04.1          20.5 GVEF210L01
         K23F07H KC2023 03 28.92049908 56 12.16 +04 40 32.1          21.0 GVEF210L01
         K23F07H KC2023 03 28.92193708 56 11.70 +04 40 11.4          20.7 GVEF210L01
         K23F07H KC2023 03 29.06623108 56 43.83 +04 04 16.9          19.9 VVEF210H21
         K23F07H KC2023 03 29.06902908 56 42.77 +04 03 29.9          20.0 VVEF210H21
         K23F07H KC2023 03 29.07182708 56 41.68 +04 02 42.6          20.0 VVEF210H21
         K23F07H KC2023 03 29.07462408 56 40.57 +04 01 55.5          20.2 VVEF210H21
         K23F07H KC2023 03 29.11076 08 56 33.85 +03 51 37.7          20.3 VqEF210734
         K23F07H KC2023 03 29.11431 08 56 32.43 +03 50 33.0          20.0 VqEF210734
         K23F07H KC2023 03 29.11773 08 56 31.08 +03 49 31.9          19.7 VqEF210734
         K23F07H KC2023 03 29.11941408 56 40.94 +03 50 01.6          20.1 GXEF210858
         K23F07H KC2023 03 29.12670008 56 37.83 +03 47 51.2          20.0 GXEF210858
         K23F07H KC2023 03 29.13455808 56 34.46 +03 45 28.8          20.0 GXEF210858
         K23F07H KC2023 03 29.29939308 55 25.381+02 50 19.03         19.80GVEF210I52
         K23F07H KC2023 03 29.30029008 55 25.036+02 49 58.15         19.29GVEF210I52
         K23F07H KC2023 03 29.30118408 55 24.654+02 49 37.67         19.73GVEF210I52
         K23F07H KC2023 03 29.30208008 55 24.330+02 49 18.01         19.84GVEF210I52
    
    Observer details:
    734 Farpoint Observatory, Eskridge.  Observers D. Cromer, G. Hug, D. Goodin,
        R. Valentine.  Measurer D. Cromer.  0.70-m f/3.0 reflector + CCD.
    858 Tebbutt Observatory, Edgewood.  Observer F. B. Zoltowski.  0.51-m f/8.1
        Schmidt-Cassegrain + CCD.
    G96 Mt. Lemmon Survey.  Observer G. J. Leonard.  Measurers E. J. Christensen,
        D. Fay, J. B. Fazekas, D. C. Fuls, A. R. Gibbs, A. D. Grauer, H. Groeller,
        J. K. Hogan, R. A. Kowalski, S. M. Larson, G. J. Leonard, D. Rankin, R. L.
        Seaman, A. Serrano, F. C. Shelly, K. W. Wierzchos.  1.5-m reflector + 10K
        CCD.
    H21 Astronomical Research Observatory, Westfield.  Observer R. Holmes.
        Measurers T. Linder, R. Holmes, L. Horn.  0.76-m f/3.0 astrograph + CCD.
    I52 Steward Observatory, Mt. Lemmon Station.  Observer J. B. Fazekas.
        Measurers E. J. Christensen, D. Fay, J. B. Fazekas, D. C. Fuls, A. R.
        Gibbs, A. D. Grauer, H. Groeller, J. K. Hogan, R. A. Kowalski, S. M.
        Larson, G. J. Leonard, D. Rankin, R. L. Seaman, A. Serrano, F. C. Shelly,
        K. W. Wierzchos.  1.0-m prime focus + CCD.
    L01 Visnjan Observatory, Tican.  Observer K. Korlevic.  1.0-m f/2.9 reflector
        + CCD.
    
    Orbital elements:
    2023 FH7                                                 Earth MOID = 0.0010 AU
    Epoch 2023 Feb. 25.0 TT = JDT 2460000.5                 Veres                   
    M 345.16225              (2000.0)            P               Q                  
    n   0.30602606     Peri.   15.10424     -0.88419479     +0.46709876             
    a   2.1808733      Node   192.74449     -0.43055857     -0.81851103             
    e   0.5502777      Incl.    1.11167     -0.18115984     -0.33445245             
    P   3.22           H   28.77          G   0.15           U   6                  
    Residuals in seconds of arc
    230328 G96  0.2+  0.4+    230328 L01  0.5+  0.3-    230329 734  0.2+  0.4-
    230328 G96  0.3-  0.5-    230328 L01  0.1+  0.6+    230329 734 (1.2+  0.4-)
    230328 G96  0.3+  0.2+    230328 L01  0.4+  0.3-    230329 858  0.0   0.1+
    230328 G96  0.0   1.0-    230328 L01  0.2-  0.0     230329 858  0.2-  0.4+
    230328 I52  0.7-  0.1-    230329 H21  0.2-  0.1-    230329 858  0.0   0.3+
    230328 I52  0.3-  0.3+    230329 H21  0.1+  0.0     230329 I52  0.2+  0.3+
    230328 I52  0.3+  0.1-    230329 H21  0.1+  0.1-    230329 I52  0.2+  0.2-
    230328 I52  0.2+  0.2+    230329 H21  0.1-  0.2+    230329 I52  0.3-  0.4-
    230328 L01  0.3+  0.2+    230329 734 (0.5-  1.1+)   230329 I52  0.0   0.3+
    
    Ephemeris:
    2023 FH7                 a,e,i = 2.18, 0.55, 1                   q = 0.9808
    Date    TT    R. A. (2000) Decl.     Delta      r    Elong.  Phase     V
    2023 02 27    09 12 50.3 +11 02 42   0.1605  1.1414   158.9    18.2    26.0
    ...
    2023 03 14    09 02 46.0 +11 04 01   0.08194 1.0595   141.7    35.5    24.9
    ...
    2023 03 22    08 59 08.1 +10 29 29   0.04264 1.0258   133.1    45.2    23.7
    ...
    2023 03 28    08 57 11.6 +07 14 47   0.01350 1.0061   127.3    52.1    21.4
    2023 03 29    08 56 35.7 +04 32 07   0.0086611.0033   126.6    53.0    20.4
    2023 03 30    08 54 46.6 -04 57 45   0.0038741.0007   125.8    54.0    18.7
    ...
    2023 04 05    20 58 12.2 -10 49 55   0.02559 0.9879    60.9   117.8    25.5
    ...
    2023 04 13    21 00 07.3 -09 09 54   0.06428 0.9801    67.9   108.6    26.9
    ...
    2023 04 28    21 06 05.7 -08 14 01   0.1338  0.9938    80.7    91.6    27.6
    
    M. P. C. Staff               (C) Copyright 2023 MPC           M.P.E.C. 2023-F210
    


    Read MPEC 2023-F209 Read MPEC 2023-F211


    MPEC number:

    Enter an MPEC number in one of the following forms:

    • 1997-B01 (the full form)
    • J97B01 (the packed version of the full form)
    • B01 (the abbreviated form)